Location: Newark
(44.3248°N, 23.7839°E)
Time: 18:03:30
(UTC+00:00)

STARS - Pass Details

Date: 24 April 2024
Orbit: 604 x 620 km, 98.1° (Epoch: 28 May)

Event Time Altitude Azimuth Distance (km) Brightness Sun altitude
Rises 11:38:43 0° 253° (WSW) 2,897 ? 54.8°
Enters shadow 12:03:53 -38° 11° (N) 8,788 ? 52.1°
Exits shadow 12:39:16 -68° 160° (SSE) 12,424 ? 47.4°
Reaches altitude 10° 21:45:06 10° 38° (NE) 1,982 ? -31.8°
